Zurück zum Katalog

STARLINK-35971

AktivKommunikationVLEO
NORAD 66895·PAYLOAD·🇺🇸 United States

Gestartet Dec 4, 2025 von Vandenberg Space Force Base

Loading…

Nächste Überflüge (nächste 24 Stunden)

TLE

AktuellSource: CelesTrak SupGP

Epoche: Sep 15, 2026, 03:49 UTC

1 66895C 25283T   26258.15951389 -.00059861  00000+0 -17686-2 0  2586
2 66895  53.1585 220.5113 0001445  85.6661 268.2604 15.34420247    14

Verfolge STARLINK-35971 in Echtzeit mit AllMySat

Download on the App Store